Location: Lane
(33.5226°N, 79.8788°W)
Time: 19:50:53
(UTC+00:00)

Courier 1B Rocket - Pass Details

Date: 05 October 2022
Orbit: 920 x 1202 km, 28.3° (Epoch: 01 December)

Event Time Altitude Azimuth Distance (km) Brightness Sun altitude
Rises 22:35:58 0° 237° (WSW) 3,917 9.6 3.8°
Reaches altitude 10° 22:39:00 10° 230° (SW) 2,915 8.6 3.2°
Maximum altitude 22:45:29 38° 164° (SSE) 1,505 6.0 1.9°
Drops below altitude 10° 22:51:33 10° 98° (E) 2,731 6.7 0.6°
Sets 22:54:18 0° 91° (E) 3,643 7.3 0.0°
Enters shadow 22:54:21 - 91° (E) 3,660 7.3 0.0°
